This demonstration page uses our WeatherBlox Daily Observations layout. Learn more.

40.92945, -100.16068

Hourly Observations for December 16, 2015

Temp ( °F °C ) Dew Point ( °F °C ) Humidity (%) Winds ( mph kmh ) Pressure ( in mb ) Visibility ( mi km ) Precip ( " mm )
12:15 am 00:15 Cloudy with Mist and Fog 27 -3 23 -5 86 86 NW 18 30 29.65 1004 5 8.04672 0 0
12:35 am 00:35 Cloudy 25 -4 23 -5 93 93 NW 18 30 29.68 1005 7 11.265408 0 0
12:55 am 00:55 Cloudy with Mist and Fog 25 -4 21 -6 86 86 NW 18 30 29.68 1005 5 8.04672 0 0
1:15 am 01:15 Cloudy 25 -4 21 -6 86 86 NW 18 30 29.68 1005 7 11.265408 0 0
1:35 am 01:35 Mostly Cloudy 23 -5 19 -7 86 86 NW 15 24 29.68 1005 10 16.09344 0 0
1:55 am 01:55 Clear 21 -6 18 -8 86 86 NW 18 30 29.71 1006 10 16.09344 0 0
2:35 am 02:35 Clear 19 -7 16 -9 86 86 WNW 14 22 29.77 1008 10 16.09344 0 0
2:55 am 02:55 Clear 19 -7 16 -9 86 86 WNW 15 24 29.77 1008 10 16.09344 0 0
3:15 am 03:15 Clear 19 -7 16 -9 86 86 WNW 13 20 29.77 1008 10 16.09344 0 0
3:35 am 03:35 Clear 19 -7 16 -9 86 86 WNW 14 22 29.77 1008 10 16.09344 0 0
3:55 am 03:55 Clear 19 -7 16 -9 86 86 WNW 13 20 29.8 1009 10 16.09344 0 0
4:15 am 04:15 Clear 19 -7 16 -9 86 86 WNW 13 20 29.8 1009 10 16.09344 0 0
4:35 am 04:35 Clear 19 -7 16 -9 86 86 WNW 14 22 29.8 1009 10 16.09344 0 0
4:55 am 04:55 Clear 19 -7 16 -9 86 86 WNW 15 24 29.8 1009 10 16.09344 0 0
5:15 am 05:15 Clear 21 -6 18 -8 86 86 WNW 10 17 29.83 1010 10 16.09344 0 0
5:35 am 05:35 Clear 21 -6 18 -8 86 86 WNW 12 19 29.83 1010 10 16.09344 0 0
5:55 am 05:55 Clear 23 -5 18 -8 80 80 WNW 17 28 29.8 1009 10 16.09344 0 0
6:15 am 06:15 Clear 21 -6 18 -8 86 86 WNW 15 24 29.83 1010 10 16.09344 0 0
6:35 am 06:35 Clear 21 -6 18 -8 86 86 WNW 15 24 29.83 1010 10 16.09344 0 0
6:55 am 06:55 Clear 21 -6 18 -8 86 86 WNW 16 26 29.85 1011 10 16.09344 0 0
7:15 am 07:15 Clear 21 -6 18 -8 86 86 WNW 12 19 29.85 1011 10 16.09344 0 0
7:35 am 07:35 Clear 23 -5 18 -8 80 80 WNW 14 22 29.83 1010 10 16.09344 0 0
7:55 am 07:55 Clear 23 -5 18 -8 80 80 WNW 13 20 29.83 1010 10 16.09344 0 0
8:15 am 08:15 Sunny 23 -5 18 -8 80 80 WNW 14 22 29.83 1010 10 16.09344 0 0
8:35 am 08:35 Sunny 23 -5 19 -7 86 86 WNW 12 19 29.83 1010 10 16.09344 0 0
8:55 am 08:55 Sunny 25 -4 19 -7 80 80 WNW 13 20 29.83 1010 10 16.09344 0 0
9:15 am 09:15 Sunny 27 -3 21 -6 80 80 WNW 15 24 29.85 1011 10 16.09344 0 0
9:35 am 09:35 Sunny 27 -3 21 -6 80 80 WNW 18 30 29.85 1011 10 16.09344 0 0
9:55 am 09:55 Sunny 27 -3 21 -6 80 80 WNW 18 30 29.85 1011 10 16.09344 0 0
10:15 am 10:15 Sunny 27 -3 23 -5 86 86 WNW 18 30 29.85 1011 10 16.09344 0 0
10:35 am 10:35 Sunny 28 -2 23 -5 80 80 WNW 15 24 29.88 1012 10 16.09344 0 0
10:55 am 10:55 Sunny 28 -2 23 -5 80 80 WNW 14 22 29.88 1012 10 16.09344 0 0
11:15 am 11:15 Sunny 28 -2 23 -5 80 80 WNW 14 22 29.88 1012 10 16.09344 0 0
11:35 am 11:35 Sunny 30 -1 25 -4 80 80 WNW 13 20 29.85 1011 10 16.09344 0 0
11:55 am 11:55 Sunny 30 -1 25 -4 80 80 WNW 14 22 29.85 1011 10 16.09344 0 0
12:15 pm 12:15 Sunny 30 -1 25 -4 80 80 WNW 18 30 29.85 1011 10 16.09344 0 0
12:35 pm 12:35 Sunny 30 -1 25 -4 80 80 WNW 15 24 29.85 1011 10 16.09344 0 0
12:55 pm 12:55 Partly Cloudy 32 0 25 -4 75 75 WNW 17 28 29.85 1011 10 16.09344 0 0
1:15 pm 13:15 Partly Cloudy 30 -1 25 -4 80 80 WNW 18 30 29.85 1011 10 16.09344 0 0
1:35 pm 13:35 Sunny 30 -1 25 -4 80 80 WNW 18 30 29.85 1011 10 16.09344 0 0
1:55 pm 13:55 Sunny 30 -1 25 -4 80 80 WNW 17 28 29.88 1012 10 16.09344 0 0
2:15 pm 14:15 Sunny 30 -1 23 -5 75 75 WNW 15 24 29.85 1011 10 16.09344 0 0
2:35 pm 14:35 Sunny 32 0 23 -5 69 69 WNW 13 20 29.85 1011 10 16.09344 0 0
2:55 pm 14:55 Sunny 32 0 23 -5 69 69 WNW 14 22 29.88 1012 10 16.09344 0 0
3:15 pm 15:15 Sunny 32 0 25 -4 75 75 W 9 15 29.88 1012 10 16.09344 0 0
3:35 pm 15:35 Sunny 32 0 25 -4 75 75 W 9 15 29.88 1012 10 16.09344 0 0
3:55 pm 15:55 Sunny 32 0 23 -5 69 69 WNW 12 19 29.88 1012 10 16.09344 0 0
4:15 pm 16:15 Sunny 32 0 23 -5 69 69 W 9 15 29.88 1012 10 16.09344 0 0
4:35 pm 16:35 Sunny 30 -1 23 -5 75 75 W 9 15 29.88 1012 10 16.09344 0 0
4:55 pm 16:55 Sunny 30 -1 23 -5 75 75 WNW 14 22 29.91 1013 10 16.09344 0 0
5:15 pm 17:15 Clear 30 -1 23 -5 75 75 WNW 14 22 29.91 1013 10 16.09344 0 0
5:35 pm 17:35 Clear 28 -2 23 -5 80 80 WNW 10 17 29.94 1014 10 16.09344 0 0
5:55 pm 17:55 Clear 28 -2 21 -6 74 74 WNW 9 15 29.94 1014 10 16.09344 0 0
6:15 pm 18:15 Clear 27 -3 21 -6 80 80 WNW 12 19 29.97 1015 10 16.09344 0 0
6:35 pm 18:35 Clear 28 -2 21 -6 74 74 WNW 13 20 29.97 1015 10 16.09344 0 0
6:55 pm 18:55 Clear 27 -3 21 -6 80 80 WNW 12 19 29.97 1015 10 16.09344 0 0
7:15 pm 19:15 Clear 27 -3 21 -6 80 80 NW 10 17 29.97 1015 10 16.09344 0 0
7:35 pm 19:35 Clear 27 -3 19 -7 74 74 NW 10 17 29.97 1015 10 16.09344 0 0
7:55 pm 19:55 Clear 25 -4 19 -7 80 80 WNW 9 15 30.03 1017 10 16.09344 0 0
8:15 pm 20:15 Clear 21 -6 18 -8 86 86 NW 6 9 30.03 1017 10 16.09344 0 0
8:35 pm 20:35 Clear 19 -7 16 -9 86 86 WNW 6 9 30.06 1018 10 16.09344 0 0
8:55 pm 20:55 Clear 19 -7 16 -9 86 86 WNW 9 15 30.09 1019 10 16.09344 0 0
9:15 pm 21:15 Clear 19 -7 16 -9 86 86 WNW 7 11 30.09 1019 10 16.09344 0 0
9:35 pm 21:35 Clear 18 -8 14 -10 86 86 WNW 7 11 30.09 1019 10 16.09344 0 0
9:55 pm 21:55 Clear 16 -9 12 -11 86 86 WNW 8 13 30.12 1020 10 16.09344 0 0
10:15 pm 22:15 Clear 14 -10 12 -11 92 92 NW 9 15 30.12 1020 10 16.09344 0 0
10:35 pm 22:35 Clear 14 -10 12 -11 92 92 WNW 7 11 30.12 1020 10 16.09344 0 0
10:55 pm 22:55 Clear 14 -10 12 -11 92 92 WNW 8 13 30.12 1020 10 16.09344 0 0
11:15 pm 23:15 Clear 14 -10 12 -11 92 92 WNW 8 13 30.15 1021 10 16.09344 0 0
11:35 pm 23:35 Clear 14 -10 10 -12 85 85 W 7 11 30.15 1021 10 16.09344 0 0
11:55 pm 23:55 Partly Cloudy 14 -10 12 -11 92 92 W 8 13 30.15 1021 10 16.09344 0 0

Powered by AerisWeather